• Join FlightAware (Why Join?)
  • Login
  • US Flag 
12:36PM EDT


 

Airport Tracker/Info


-or-


 

Live Flight TrackerFlight Track Log ✈ TSU391 ✈ 27-Apr-2012 ✈ KBRO - KLRD

Flight Track Log - Related Links

Times and Time Zones

All times are in EDT time to prevent confusion due to time zone crossing. See the TSU391 flight status page for this flight to view local times or setup timezone preferences in your user account.

Time Position Orientation Groundspeed Altitude Reporting Facility
EDT Latitude Longitude Course Direction KTS MPH feet Rate Location/Type
09:07AM 26.0793 -97.9573 102° East  Level FlightAware Approximate
09:08AM 26.1248 -98.0038 105° East  Level FlightAware Approximate
09:08AM 25.9772 -97.4067 310° West 248 285 4,100  Level Houston Center
09:09AM 26.0189 -97.4619 283° West 247 284 5,800 1,440 Climbing Houston Center
09:10AM 26.0364 -97.5436 281° West 252 290 7,100 1,260 Climbing Houston Center
09:11AM 26.0497 -97.6228 285° West 263 303 8,400 1,260 Climbing Houston Center
09:12AM 26.0692 -97.7047 278° West 269 310 9,700 1,260 Climbing Houston Center
09:13AM 26.0800 -97.7864 284° West 264 304 11,000 1,080 Climbing Houston Center
09:14AM 26.0975 -97.8658 281° West 264 304 11,900 420 Climbing Houston Center
09:15AM 26.1142 -97.9592 283° West 294 338 11,900  Level Houston Center
09:17AM 26.1347 -98.0597 281° West 312 359 11,900  Level Houston Center
09:18AM 26.1544 -98.1717 287° West 309 356 11,900  Level Houston Center
09:19AM 26.1775 -98.2564 322° Northwest 326 375 11,900  Level Houston Center
09:20AM 26.2536 -98.3233 319° Northwest 301 346 12,000  Climbing Houston Center
09:21AM 26.3256 -98.3922 318° Northwest 320 368 11,900  Descending Houston Center
09:22AM 26.3872 -98.4539 323° Northwest 311 358 12,000  Climbing Houston Center
09:23AM 26.4572 -98.5136 320° Northwest 314 361 12,000  Level Houston Center
09:24AM 26.5250 -98.5781 323° Northwest 315 362 12,000 -60 Level Houston Center
09:25AM 26.5931 -98.6358 323° Northwest 315 362 11,900 -60 Descending Houston Center
09:26AM 26.6631 -98.6958 323° Northwest 315 362 11,900  Level Houston Center
09:27AM 26.7311 -98.7536 325° Northwest 310 357 11,900  Level Houston Center
09:28AM 26.8011 -98.8092 324° Northwest 310 357 11,900  Level Houston Center
09:29AM 26.8692 -98.8647 325° Northwest 310 357 11,900  Level Houston Center
09:30AM 26.9394 -98.9206 323° Northwest 310 357 11,900 -780 Level Houston Center
09:31AM 27.0072 -98.9783 322° Northwest 310 357 10,400 -1,680 Descending Houston Center
09:32AM 27.0711 -99.0339 319° Northwest 310 357 8,600 -1,800 Descending Houston Center
09:33AM 27.1364 -99.0967 318° Northwest 310 357 6,900 -1,800 Descending Houston Center
09:34AM 27.2017 -99.1617 322° Northwest 310 357 5,100 -1,440 Descending Houston Center
09:35AM 27.2675 -99.2197 334° Northwest 310 357 4,100 -720 Descending Houston Center
09:36AM 27.3322 -99.2547 331° Northwest 286 329 3,700 -720 Descending Houston Center
09:37AM 27.3908 -99.2914 332° Northwest 256 295 2,700 -600 Descending Houston Center
09:38AM 27.4472 -99.3258 322° Northwest 237 273 2,600 -300 Descending Houston Center
09:39AM 27.4969 -99.3689 331° Northwest 232 267 2,100 -300 Descending Houston Center
09:40AM 27.5433 -99.3981 350° North 226 260 2,000 -180 Descending Houston Center
09:41AM 27.5950 -99.4086 283° West 205 236 1,800 -360 Descending Houston Center
09:42AM 27.6031 -99.4489 203° Southwest 137 158 1,300 -480 Descending Houston Center
09:43AM 27.5772 -99.4611 180° South 69 79 900 -420 Descending Houston Center
09:44AM 27.5481 -99.4614 180° South 75 86 500 -420 Descending Houston Center